Theta_e
327 320 315 317 311 311 307 302 296 293 293 289 286 289 293 294 296 297 299 300 302 305 303 309 308 309 307 305 306 305 307 307 305 298 296 304 318 328 327 330 335 337 339 342 343 343 343 345 346 344 343 342 342 341 340 339 339 340 340 340 341 345 345 345 345 343 341 343 342 343 343 344 344 345 346 347 345 345 344 344 343 342 340 339 340 342 342 341 341 341 340 341 341 341 341 340 339
320 317 313 313 312 309 305 297 291 286 287 286 286 288 289 292 296 295 298 298 301 308 310 314 315 315 315 313 313 311 309 313 307 312 314 322 328 328 330 334 337 338 341 342 342 343 341 343 345 344 342 341 341 340 339 340 340 339 338 340 341 344 345 345 343 342 342 342 342 343 345 346 346 347 347 346 345 345 344 343 342 342 342 339 339 340 341 341 341 340 339 340 341 341 340 339 338
317 315 314 311 309 305 301 298 295 284 286 285 282 288 292 294 294 295 298 297 303 312 312 313 313 312 312 310 308 308 304 315 316 318 322 329 325 327 334 336 338 340 341 342 342 342 342 342 344 343 342 341 340 340 340 339 338 337 338 340 341 344 343 342 341 342 342 342 342 346 346 345 346 346 346 346 345 344 343 343 343 342 342 342 339 339 340 341 340 340 339 340 341 340 340 339 338
315 317 312 307 306 301 295 290 288 286 288 282 283 289 291 293 295 297 296 297 308 310 308 309 312 314 310 307 310 314 311 314 316 320 322 324 321 330 336 337 340 342 341 341 342 341 340 342 343 344 342 341 340 339 339 339 339 339 338 339 339 340 341 341 341 343 343 342 341 342 344 346 346 345 346 344 345 343 342 341 340 341 341 340 340 340 341 341 340 340 339 340 340 340 339 338 337
316 317 309 305 303 302 292 289 286 285 287 284 289 287 293 293 295 295 301 301 307 306 303 308 310 314 314 312 313 309 308 315 317 319 322 326 331 335 337 340 341 341 340 341 340 338 338 342 343 343 342 341 339 337 338 339 339 339 340 340 339 340 340 340 341 341 341 341 340 342 346 346 346 345 345 344 342 341 341 340 340 340 340 340 339 339 340 341 340 340 339 339 339 339 338 336 336
312 311 312 309 304 303 297 292 290 289 289 289 292 293 292 295 297 297 304 302 302 302 302 306 310 310 312 315 315 311 313 312 317 317 323 325 334 337 339 340 341 340 340 339 337 335 336 340 342 343 342 341 340 338 338 338 338 337 340 340 340 339 338 341 340 341 341 341 342 345 345 345 345 344 344 343 342 341 339 338 339 339 340 338 338 339 340 339 340 340 339 339 339 339 337 335 333
312 306 305 305 304 300 295 287 286 286 291 292 295 294 295 296 300 299 302 303 303 306 303 309 311 311 309 311 315 317 319 322 320 320 325 329 336 337 339 340 340 339 339 337 335 335 335 340 342 344 343 343 341 339 339 339 338 338 339 340 340 338 337 339 342 342 342 344 344 345 345 345 346 344 342 342 341 340 339 340 340 340 340 339 339 339 339 338 339 339 338 338 338 338 338 336 334
313 307 303 299 296 295 290 288 289 287 292 292 294 298 297 298 298 300 299 301 302 305 308 310 310 307 307 314 308 317 320 321 323 324 330 334 336 338 338 339 338 338 338 337 334 333 342 339 342 343 343 341 340 339 338 338 337 337 339 339 337 337 337 339 339 341 344 346 345 345 346 345 344 344 343 342 342 342 341 340 339 340 339 338 338 337 337 338 337 338 338 338 338 337 337 336 335
307 305 302 300 295 292 289 292 291 291 291 291 293 297 306 299 299 300 298 297 300 301 307 311 307 305 304 311 308 314 317 321 324 330 333 335 335 337 338 338 338 336 337 336 333 333 334 339 341 343 342 342 341 339 339 338 338 337 336 335 338 338 337 338 339 340 342 346 345 344 344 345 344 344 343 342 341 340 340 340 340 338 337 337 337 337 337 337 337 338 338 337 337 336 336 337 336
304 305 298 296 294 295 290 289 290 293 292 293 297 301 300 299 299 298 298 300 301 303 306 305 305 305 307 307 307 315 317 321 328 330 333 334 336 337 337 338 338 336 335 335 334 333 333 342 338 339 340 342 343 342 340 339 337 336 337 337 338 338 337 337 338 340 340 343 344 344 344 344 344 343 342 341 340 340 339 339 340 339 337 337 336 336 336 336 337 337 337 337 337 336 336 335 336
303 301 300 298 288 288 290 290 288 291 293 291 294 296 300 299 299 297 297 300 299 303 306 309 309 308 310 309 308 315 320 321 327 327 333 334 336 336 336 337 337 336 334 334 334 334 335 336 340 337 339 340 342 342 342 340 336 336 338 338 339 339 338 339 339 340 341 341 343 343 344 343 343 342 341 340 340 339 339 339 339 337 337 337 338 337 336 335 336 336 336 336 336 336 335 335 334
301 298 296 288 289 291 289 291 291 290 292 293 300 299 298 299 296 297 298 300 300 300 306 308 306 308 307 306 308 313 318 320 322 330 332 334 335 336 336 336 335 334 333 333 335 335 334 334 334 339 336 336 338 339 339 340 340 338 341 340 341 340 340 340 340 341 341 341 342 342 343 343 342 341 341 340 341 339 339 339 338 336 336 337 336 335 335 335 335 335 336 335 335 335 335 334 334
302 300 294 292 292 292 291 290 292 295 288 292 298 300 298 299 298 296 296 299 298 302 303 304 312 310 305 307 308 312 317 319 319 329 331 333 334 335 335 334 334 333 331 331 333 333 333 334 333 333 333 334 333 334 336 337 339 341 342 342 342 342 342 341 341 340 341 341 342 342 342 342 341 341 340 340 340 340 339 338 338 336 336 335 335 335 336 335 335 335 335 335 334 334 334 334 334
303 301 298 297 291 290 291 291 288 291 291 294 293 296 298 299 296 296 298 299 297 300 302 301 313 307 310 310 309 310 317 319 321 323 328 331 333 334 334 333 331 329 329 331 331 330 330 332 333 330 329 330 329 331 332 335 337 341 341 341 342 342 341 341 341 342 342 342 342 342 341 342 341 341 341 341 340 339 338 337 338 336 335 334 335 336 334 334 334 334 334 334 334 334 334 334 333
307 304 297 293 291 291 291 292 290 288 291 291 297 296 297 299 296 296 300 299 299 299 308 310 313 304 299 307 303 313 319 320 321 322 325 330 332 333 332 332 331 330 330 331 331 330 330 330 331 329 328 328 328 328 326 329 333 337 338 339 339 340 340 339 340 339 339 340 340 339 339 338 337 337 338 338 338 336 335 333 336 337 336 335 335 335 334 334 334 333 333 334 334 334 333 333 333
307 303 298 296 291 291 293 293 288 288 291 292 296 295 298 299 295 299 299 300 300 304 306 311 308 303 303 306 308 312 321 321 321 323 326 329 331 331 331 331 331 330 331 330 330 330 330 330 330 329 326 328 328 326 326 326 330 332 335 336 337 337 337 337 335 334 333 334 334 333 332 331 330 330 330 331 332 336 334 329 333 336 335 335 335 334 334 333 333 333 333 333 333 331 331 331 331
310 307 299 290 292 292 294 293 291 290 290 291 293 296 298 298 297 299 300 301 303 304 306 309 307 312 309 309 312 315 322 321 321 323 325 327 328 327 328 329 329 329 330 330 331 331 330 330 330 328 326 327 327 328 326 326 328 330 332 332 332 334 334 334 332 327 325 325 326 325 327 326 325 326 326 326 327 324 325 327 331 335 335 335 334 334 333 333 332 332 333 332 334 329 323 324 324
310 304 297 294 292 292 295 296 293 295 294 296 294 296 299 296 298 301 304 304 301 304 307 306 309 310 311 312 314 321 321 320 321 322 323 324 325 325 325 327 327 327 328 329 331 331 330 330 330 329 326 326 327 327 327 326 326 329 328 328 330 331 329 328 326 325 328 322 322 324 323 324 322 321 323 329 322 324 324 325 329 333 335 334 335 334 333 333 332 332 331 333 332 326 319 311 312
302 296 298 299 295 299 300 298 297 296 297 295 296 294 299 299 298 299 301 298 303 303 303 305 308 310 312 315 319 320 320 319 320 320 321 322 323 323 324 324 326 327 327 328 329 330 330 330 330 329 328 324 326 326 327 326 325 325 326 327 327 327 328 327 324 324 321 321 321 321 320 320 320 321 321 323 323 320 324 325 328 331 332 331 333 333 332 332 332 333 333 331 328 322 313 310 310
297 300 296 299 302 303 301 298 299 298 297 295 295 295 296 299 298 299 300 297 300 301 299 302 304 307 308 312 319 319 319 318 319 318 319 321 322 323 324 324 324 326 327 328 329 331 331 330 330 330 328 323 326 326 326 326 324 323 324 325 326 324 323 323 322 321 320 321 320 319 319 317 318 319 327 326 325 324 324 322 323 327 328 328 330 327 326 326 327 327 326 325 317 314 312 312 311
298 297 296 299 301 302 304 300 296 297 296 296 295 294 296 297 298 299 296 300 299 300 300 304 305 307 313 316 317 318 318 317 317 317 318 318 320 323 324 325 325 326 327 328 329 329 331 330 330 330 329 324 325 328 329 329 326 323 323 323 324 323 322 320 320 320 320 319 319 319 318 316 317 318 322 323 322 323 323 324 324 325 324 324 324 324 322 321 319 317 315 314 311 312 311 309 309
298 298 297 298 299 302 303 299 296 293 293 295 293 297 297 297 298 297 300 298 298 302 305 304 305 307 315 316 318 318 318 317 317 317 317 317 318 319 322 323 324 325 324 325 326 329 330 331 330 330 331 327 324 326 329 331 329 325 321 322 323 322 322 321 319 320 319 319 318 318 318 318 317 320 321 322 322 322 322 322 323 324 325 325 324 323 322 320 318 316 314 313 313 311 311 311 309
299 299 297 296 298 301 300 296 295 294 294 294 294 297 297 299 297 295 301 300 300 300 301 303 304 312 317 318 319 318 317 317 317 317 317 317 318 319 320 321 321 321 322 323 326 327 330 331 331 331 329 329 324 323 328 330 329 327 323 323 324 323 321 320 320 319 319 318 318 317 319 317 317 317 319 320 321 321 322 321 322 322 323 323 323 323 321 319 315 316 316 314 312 310 310 308 308
302 301 298 299 296 300 295 296 294 292 295 295 296 296 297 295 297 295 298 302 302 297 294 295 304 315 317 317 318 319 319 318 318 319 319 319 319 319 320 320 320 317 318 320 322 324 326 329 330 330 330 330 328 324 325 328 330 329 324 322 324 324 322 321 320 321 320 319 318 318 318 319 319 318 318 318 319 319 321 320 321 321 322 322 323 322 321 319 316 315 315 313 312 309 309 311 310
301 300 299 299 297 297 296 292 292 292 293 292 293 296 296 297 296 295 297 303 303 299 303 306 313 315 316 317 318 318 318 318 318 319 318 319 319 318 318 319 319 317 318 318 319 321 323 328 329 329 329 330 330 326 323 326 329 329 327 323 323 322 322 322 322 321 320 319 318 318 318 318 317 318 317 317 315 317 319 319 319 320 320 320 321 321 320 319 318 316 316 314 309 310 309 313 310
300 302 300 300 298 299 297 294 292 292 293 292 295 294 292 293 294 295 299 301 300 301 306 311 313 314 315 316 318 318 318 318 319 318 319 320 318 317 318 319 319 318 319 320 319 320 321 325 327 328 329 330 331 329 326 323 326 328 328 326 324 321 322 322 321 321 321 320 319 318 318 319 319 319 318 315 316 317 316 315 317 318 319 319 320 320 320 318 318 315 314 312 312 311 311 313 309
300 301 301 302 301 300 295 299 296 292 295 292 295 293 293 293 294 295 295 297 297 301 306 308 313 313 315 316 317 318 318 318 319 320 317 317 318 318 319 319 318 320 320 319 319 320 321 322 325 326 327 328 331 330 328 325 324 326 327 327 325 322 321 322 321 322 321 321 321 320 319 319 319 319 319 318 317 317 315 314 315 315 316 316 318 320 319 319 317 315 314 313 312 310 312 310 309
301 302 301 300 299 297 293 293 294 293 297 291 294 293 293 294 293 295 297 296 298 300 304 310 311 312 314 315 316 317 318 319 319 316 318 317 319 319 320 320 319 320 320 319 320 320 320 321 323 325 325 325 328 330 329 327 324 323 324 325 324 323 321 322 322 321 320 321 321 320 320 320 318 319 319 318 318 317 316 315 315 314 316 315 316 317 316 314 314 313 311 311 310 309 311 310 309
300 301 298 299 299 300 297 296 294 294 296 292 294 295 293 292 294 297 298 295 298 298 303 308 310 311 313 315 316 316 318 318 317 318 319 321 321 322 321 322 321 321 322 321 320 319 320 321 323 324 325 324 326 328 329 329 328 325 323 323 323 323 322 322 322 322 321 321 321 320 320 320 319 319 319 319 317 318 317 316 316 315 316 316 315 315 315 312 310 310 312 310 309 308 308 312 309
301 299 297 299 298 297 300 292 292 294 296 292 298 292 294 297 299 298 299 295 297 298 299 305 309 310 312 313 315 316 316 315 317 319 320 321 321 322 321 322 322 322 322 321 319 319 321 322 323 324 325 324 324 327 328 329 329 327 324 323 322 322 322 322 321 321 321 321 321 321 321 320 319 320 320 318 318 318 318 317 317 317 316 315 314 313 314 313 313 311 313 311 313 310 311 312 310
300 298 299 294 292 292 297 296 291 294 293 291 298 293 296 298 300 300 298 297 298 298 299 300 306 309 311 312 314 315 316 318 319 320 320 321 321 322 322 322 322 322 321 320 320 320 320 321 323 323 323 324 323 324 325 327 328 328 326 324 323 323 322 322 322 322 322 322 321 321 321 321 320 320 320 320 318 318 318 318 317 318 317 314 314 314 315 313 313 314 313 312 311 309 308 311 310
296 297 294 291 295 293 295 295 294 297 294 291 297 291 295 299 298 299 299 296 297 299 299 299 302 306 309 311 313 314 316 317 318 318 320 321 321 322 322 322 322 322 322 321 321 320 319 320 321 322 322 323 323 323 325 326 327 328 327 324 324 322 322 322 322 322 322 322 321 321 321 321 320 321 320 319 319 318 318 318 318 318 317 315 315 313 312 314 312 312 312 311 311 312 309 312 310
296 298 288 293 290 295 297 297 292 298 293 293 297 292 290 294 296 297 295 295 295 298 299 297 298 302 306 309 311 313 314 315 316 318 319 320 321 322 322 322 323 323 323 322 321 320 320 320 320 321 321 322 323 323 324 325 326 326 326 325 324 323 323 322 322 322 321 321 320 321 321 320 320 321 321 320 320 319 318 318 318 318 316 316 315 314 313 314 313 314 312 310 312 314 311 311 311
296 294 292 288 293 293 294 296 296 292 294 292 292 293 296 296 297 296 295 295 294 293 295 296 295 296 301 306 308 311 313 314 315 317 319 320 321 322 323 321 323 323 323 323 322 321 321 320 320 320 322 322 323 323 323 325 325 325 325 324 322 323 323 323 323 322 321 321 320 320 320 320 320 320 321 320 320 320 319 318 318 318 317 316 315 314 315 314 312 313 314 312 312 312 313 312 313
295 294 293 292 292 295 295 296 297 293 292 294 292 291 295 298 298 297 295 292 295 296 297 297 296 295 295 299 303 307 310 312 315 317 318 319 320 321 322 323 322 322 324 323 323 322 322 321 320 319 320 321 321 322 322 323 324 324 323 323 322 323 323 323 323 322 322 321 320 320 320 320 319 320 321 320 320 320 319 318 318 316 317 316 316 315 313 312 312 311 313 314 310 313 315 313 314
299 298 297 293 293 293 294 298 297 294 291 291 290 292 294 296 296 299 299 292 293 295 294 295 295 295 295 296 297 301 305 308 313 316 317 318 320 321 322 323 323 323 323 323 322 322 321 321 320 319 319 321 321 321 321 321 321 321 321 320 321 321 323 321 321 322 322 321 321 320 320 320 320 319 320 321 320 319 319 318 318 317 316 316 316 315 314 314 314 312 312 313 313 310 309 311 308
300 298 297 295 294 294 294 296 296 294 292 292 292 293 295 296 295 298 299 296 294 295 295 295 296 296 295 296 296 297 300 304 309 311 314 316 317 320 321 321 322 322 322 323 322 322 322 321 320 319 319 320 320 320 319 319 319 319 319 320 321 322 321 321 320 320 321 321 321 320 320 320 320 319 319 320 320 318 319 319 318 316 316 316 316 317 317 316 316 315 314 312 313 313 311 309 308
299 298 297 296 295 296 295 296 297 294 292 290 291 291 293 294 295 297 296 295 296 298 298 296 297 298 298 297 297 297 299 300 301 302 305 308 312 315 318 320 319 320 321 322 322 322 322 322 321 320 319 319 320 321 320 319 320 320 319 319 320 321 320 318 319 320 320 320 320 320 320 320 320 320 318 319 319 319 319 318 318 318 317 316 317 317 316 314 315 314 312 312 309 313 313 310 309
299 297 296 295 296 295 296 295 293 294 293 292 291 290 293 295 295 296 295 296 298 299 299 300 299 299 299 299 298 298 297 298 299 300 302 304 307 310 315 318 320 321 322 322 323 322 322 322 322 321 321 319 320 321 321 320 321 320 320 319 320 318 318 320 320 320 319 319 320 320 319 320 320 320 319 318 319 319 319 319 318 318 318 317 316 316 315 315 315 315 314 315 313 306 310 307 310
297 296 294 295 295 296 293 295 292 294 294 290 288 289 295 298 296 297 298 298 299 300 299 300 300 300 300 300 300 299 298 298 298 299 299 301 303 306 311 315 318 320 320 321 322 322 323 322 322 322 321 320 320 320 319 322 321 320 320 318 317 319 317 314 317 316 317 318 319 319 320 320 319 320 319 319 319 320 319 319 319 318 319 318 318 317 316 316 315 315 314 314 315 314 308 309 309
300 300 299 295 294 297 297 293 289 291 292 290 290 292 295 298 296 298 299 299 299 299 298 298 299 300 301 301 300 300 300 299 299 299 299 299 300 302 306 311 316 318 320 321 322 322 323 322 322 323 322 321 320 319 319 320 318 315 315 314 313 313 312 312 312 316 317 317 318 318 319 319 319 319 319 319 318 319 320 320 320 320 319 318 318 318 318 318 317 316 316 314 314 316 316 309 305
298 300 301 299 296 296 293 289 294 292 291 292 293 287 292 296 299 300 304 295 296 297 297 299 300 300 299 299 300 301 300 300 301 301 301 301 300 301 303 306 312 316 318 320 322 323 323 323 323 323 323 322 321 320 320 320 319 319 316 316 315 315 315 315 315 316 316 316 317 318 317 319 319 319 319 319 319 318 319 320 320 320 319 319 318 319 319 317 316 316 316 317 315 315 317 314 311
296 298 302 300 298 297 292 289 294 288 290 293 292 292 290 292 291 295 297 294 299 296 296 300 300 301 300 300 301 301 302 301 300 301 301 300 300 299 301 303 308 312 316 320 321 322 322 323 323 323 323 323 322 321 319 318 319 319 318 318 318 317 316 317 318 315 317 318 317 317 318 317 319 319 319 319 319 318 319 319 320 320 320 320 318 318 318 318 318 318 317 316 317 315 314 315 316
296 302 302 299 297 296 294 293 297 293 292 292 288 291 289 291 297 297 294 293 297 296 297 298 299 298 299 300 301 302 303 303 303 302 301 301 301 300 301 303 306 310 313 317 320 321 321 322 323 323 323 322 323 322 319 319 319 319 318 318 318 318 318 318 318 318 316 315 317 317 317 317 317 319 319 319 319 319 318 319 319 319 319 320 318 318 318 318 317 316 316 317 317 316 316 316 316
298 302 301 298 298 295 295 294 291 290 291 291 287 287 288 288 293 290 291 293 295 296 298 299 298 298 299 300 301 302 303 303 303 303 303 303 302 302 302 302 304 308 311 315 318 320 322 322 322 323 323 322 322 321 319 319 319 320 319 319 318 318 319 319 314 314 316 315 316 316 317 317 317 317 319 319 319 320 317 318 318 318 319 319 317 318 318 317 316 315 314 314 315 316 316 317 317
298 301 301 298 297 295 295 289 291 288 288 288 290 290 288 291 297 293 289 292 297 300 302 302 301 300 299 300 300 301 301 301 303 304 305 305 304 304 303 302 301 305 310 314 317 319 321 321 321 321 322 323 323 322 320 319 319 318 319 319 318 319 318 317 314 315 315 315 316 316 316 316 317 316 317 318 319 319 319 317 318 318 318 319 316 317 317 316 316 315 316 315 316 317 318 317 317
303 302 299 296 293 291 289 290 288 288 286 289 294 290 292 288 295 297 292 293 298 301 300 297 298 299 300 300 300 301 301 301 301 301 302 303 302 302 300 301 302 303 306 311 314 317 319 320 320 320 321 322 322 322 320 319 319 319 319 319 319 318 318 317 315 316 315 313 315 315 315 316 316 317 317 317 318 319 319 318 318 319 319 318 316 317 317 317 317 317 318 318 318 318 318 319 317
300 295 295 297 291 292 289 287 289 287 286 291 294 290 292 286 291 299 301 300 299 301 300 301 299 298 300 300 300 300 301 301 300 299 300 300 299 298 296 299 301 301 303 308 312 315 317 319 319 319 320 321 321 321 321 320 319 319 319 319 319 319 319 318 317 317 317 315 315 315 314 314 316 316 317 317 319 319 319 319 318 319 319 320 320 320 320 320 320 320 320 319 319 319 319 319 319
298 296 296 292 286 288 285 287 284 285 287 285 286 291 287 289 295 292 291 295 297 296 302 303 301 300 300 300 300 300 299 296 297 298 298 298 299 299 298 299 299 299 302 306 310 313 316 317 318 318 319 320 321 321 321 320 320 319 319 319 320 320 319 319 318 318 317 317 316 315 313 315 316 318 319 320 320 321 320 320 321 321 321 321 322 322 322 322 322 322 321 321 320 320 320 320 319
296 295 292 288 283 283 284 285 286 285 286 286 286 290 290 295 294 299 301 299 298 298 297 297 299 301 301 300 297 297 296 295 296 296 297 298 298 299 299 299 299 299 300 304 307 310 314 316 317 318 319 319 320 320 320 320 320 321 320 320 320 320 319 319 319 319 318 317 316 316 316 316 316 318 320 321 322 322 322 322 323 323 324 323 322 323 323 323 323 323 323 322 321 322 322 321 320
297 300 297 291 289 286 283 285 283 285 285 284 286 288 285 286 289 289 293 299 300 299 299 297 296 297 297 295 293 293 293 292 293 294 295 296 297 297 298 298 298 299 299 302 306 309 312 314 316 316 317 318 319 320 320 320 321 321 321 321 321 321 320 320 320 320 319 317 316 317 316 316 317 317 319 320 319 321 321 322 323 324 324 325 324 324 324 324 325 324 323 323 323 323 323 322 322
297 294 294 292 290 285 284 279 282 278 280 279 281 287 288 292 291 294 294 291 291 290 292 291 293 294 293 294 296 297 296 297 296 294 294 294 295 295 295 296 298 298 298 300 304 308 310 313 314 316 317 318 318 317 319 320 321 321 321 321 321 320 318 319 319 317 319 319 317 317 317 316 317 318 318 317 318 320 321 321 321 322 323 324 325 325 325 325 325 324 324 323 322 322 323 322 322
294 297 292 294 290 287 281 278 276 278 276 281 280 283 289 289 297 300 300 293 294 292 291 290 292 293 290 294 297 296 296 295 295 295 296 296 293 293 294 295 296 296 297 299 303 307 310 312 313 314 315 316 317 317 319 319 320 320 320 321 321 320 320 319 320 319 318 316 316 316 317 317 316 317 317 316 317 318 320 321 321 321 322 323 325 325 325 325 325 324 323 323 322 323 322 322 322
297 291 295 293 293 290 289 284 272 271 278 280 280 285 285 281 288 292 299 297 297 296 296 294 292 291 291 293 294 293 294 295 294 293 293 293 293 293 293 294 295 297 298 298 301 306 310 311 312 313 313 314 315 316 317 318 318 318 319 319 320 320 320 320 319 318 316 314 315 315 315 315 316 316 316 316 316 317 318 315 320 320 322 323 324 324 324 325 324 323 324 323 323 322 321 320 320
299 297 300 295 286 287 286 284 280 275 278 282 276 281 280 286 291 285 288 295 297 298 298 295 295 293 293 294 292 292 293 292 292 293 292 292 292 292 293 294 294 295 296 298 299 302 304 304 308 311 312 314 315 316 316 316 318 318 319 318 319 319 320 319 318 317 314 315 315 315 315 317 314 313 313 314 315 316 316 317 319 320 322 323 323 324 324 324 323 322 321 321 321 322 321 320 320
295 299 297 294 293 290 288 286 282 281 281 274 283 278 285 287 290 293 290 290 296 298 297 297 298 297 294 293 294 294 293 293 293 293 293 292 292 292 293 293 293 294 294 294 293 295 300 304 304 306 305 305 306 310 310 313 314 316 317 316 316 317 317 318 317 316 315 315 316 315 315 313 314 312 314 314 314 314 314 314 315 318 320 322 322 323 323 323 323 323 322 320 319 320 320 319 319
290 295 292 292 291 289 290 289 288 283 283 284 282 281 284 289 290 295 298 294 292 296 297 297 297 294 292 292 293 293 293 293 292 292 292 292 291 291 291 291 290 290 289 290 292 294 296 297 300 301 306 306 307 309 309 312 312 314 314 314 314 313 314 316 315 315 315 316 316 313 315 315 309 312 312 312 312 313 313 313 314 314 318 319 320 321 321 321 321 321 321 321 319 318 318 317 315
295 295 293 295 292 287 286 284 288 284 285 278 278 283 289 284 290 298 298 301 301 296 294 294 292 291 291 291 291 292 292 292 292 292 291 291 290 290 288 287 287 287 288 289 290 290 291 295 299 300 301 304 305 305 308 311 310 312 312 313 312 312 314 313 313 313 314 315 315 314 312 308 311 312 310 312 311 311 311 312 313 314 315 317 319 320 320 320 319 318 317 318 316 313 312 312 311
Wind_Speed
5 4 2 0 3 2 3 7 1 3 3 0 0 0 1 0 0 1 2 1 0 1 1 1 1 5 3 3 5 2 1 6 5 5 1 1 1 3 3 3 5 7 6 5 5 6 5 6 11 12 13 12 12 12 11 11 10 10 10 9 10 11 10 11 11 11 10 10 9 9 10 11 12 12 13 14 15 15 15 14 15 14 15 15 15 15 15 15 15 16 16 15 15 15 16 16 15
4 3 2 0 0 2 1 1 4 3 5 2 3 1 2 1 1 3 5 3 2 1 1 3 5 6 7 5 4 3 1 0 2 0 0 1 4 2 1 5 8 9 7 5 5 5 3 4 10 11 12 12 12 12 12 10 9 8 9 10 10 11 10 12 11 11 11 10 10 10 10 10 11 13 13 14 15 15 15 14 14 14 14 14 14 15 15 15 15 15 15 15 15 15 14 15 15
3 4 1 2 3 5 2 4 2 1 2 1 3 6 1 2 4 4 7 4 3 5 3 3 2 3 2 2 0 1 2 1 2 1 2 4 9 4 4 5 7 9 8 5 5 4 3 6 9 11 11 12 12 12 12 11 10 8 8 9 11 11 10 10 10 10 10 9 9 11 11 10 11 12 13 14 15 15 15 14 14 14 13 13 13 13 14 14 14 14 15 15 15 14 14 14 14
1 3 0 2 1 3 1 4 4 6 1 4 2 3 3 4 6 5 4 4 5 3 0 0 2 1 0 0 1 0 0 0 2 4 4 5 4 5 6 6 8 7 5 4 4 4 4 8 10 11 11 11 11 11 11 10 10 11 8 7 8 9 9 9 10 10 9 9 8 11 11 11 11 12 13 14 15 15 14 13 13 13 13 13 13 13 13 13 14 14 14 14 14 14 14 13 13
0 2 2 2 3 2 2 0 4 2 1 4 1 3 3 3 4 3 1 2 3 2 1 1 2 1 1 1 0 1 1 1 0 3 1 1 1 7 8 6 7 7 6 4 4 4 4 10 9 10 12 11 11 10 9 10 9 10 10 9 8 7 7 9 9 9 9 8 8 9 11 11 13 13 13 14 15 14 13 13 12 12 12 12 12 12 12 13 13 14 14 14 14 14 13 13 12
2 1 3 1 1 2 5 1 1 1 4 5 0 1 4 5 5 4 1 1 3 2 2 0 1 3 0 1 2 0 2 1 2 1 4 5 7 9 8 6 6 6 5 4 4 4 4 9 8 9 11 11 11 10 9 9 8 7 9 9 8 6 7 9 9 9 9 9 8 9 10 11 12 13 13 15 14 14 13 12 12 12 12 12 12 11 12 12 12 12 12 13 12 13 13 12 13
1 2 4 4 2 3 3 2 2 3 4 5 1 1 4 4 4 4 1 0 1 0 3 1 1 3 2 1 1 1 1 1 2 2 6 6 10 9 9 7 5 6 5 4 4 5 4 7 8 8 8 8 10 10 9 9 8 8 7 9 9 8 7 8 9 8 8 7 7 9 10 11 12 13 13 13 12 12 12 12 13 12 12 11 11 11 11 11 11 11 12 12 12 12 12 12 12
1 0 2 2 1 3 2 1 3 5 1 5 1 2 2 5 4 4 3 1 2 2 0 2 0 1 0 2 1 1 2 0 0 4 8 9 10 10 10 7 5 5 5 4 3 4 7 8 8 8 8 9 9 8 8 8 7 7 8 8 7 7 6 8 9 8 10 10 9 9 11 12 12 12 12 12 13 13 12 12 11 12 11 11 10 10 10 10 11 11 11 12 12 12 12 12 11
5 6 1 3 1 3 2 1 3 3 5 1 5 5 3 4 4 5 3 2 1 0 1 3 1 1 2 1 1 1 2 3 3 9 10 11 11 11 9 8 5 5 4 4 2 3 4 6 6 6 7 7 8 8 8 8 8 8 7 5 8 7 7 7 7 8 9 12 10 10 10 12 11 11 12 12 13 12 12 11 11 11 10 10 10 10 9 10 10 10 11 11 12 12 12 12 11
2 2 1 1 2 1 2 2 1 1 2 1 2 1 4 3 3 1 3 0 1 1 2 1 1 0 0 2 1 2 0 1 5 8 9 10 11 10 11 10 8 6 5 4 3 2 2 4 5 6 7 7 7 7 8 8 7 7 9 8 7 7 5 4 6 8 6 10 10 11 10 11 11 12 12 12 11 11 11 10 10 11 10 9 9 9 9 9 9 10 10 11 11 12 12 12 11
0 5 2 2 3 1 1 3 3 4 1 4 3 4 3 4 5 1 1 1 1 2 0 1 1 1 1 2 2 2 1 4 8 10 10 10 9 9 9 10 8 6 6 4 4 3 3 3 4 5 5 5 3 6 7 8 8 7 9 9 8 8 8 7 6 7 6 8 8 9 10 11 11 11 11 11 11 10 10 10 10 10 9 9 9 9 8 8 8 9 10 10 10 11 12 11 11
1 1 1 2 1 4 3 1 3 6 5 2 1 0 3 6 2 1 1 2 1 1 3 5 1 6 1 3 3 1 1 5 3 9 9 8 9 8 8 7 8 7 6 5 5 5 4 3 2 4 4 4 4 6 7 6 6 5 6 7 8 6 8 6 5 7 6 7 8 8 10 11 11 11 11 10 8 9 10 10 9 9 8 8 8 8 8 8 8 8 9 9 9 10 11 11 11
2 1 5 3 1 1 1 0 1 1 2 3 3 0 3 5 4 5 4 1 0 1 4 8 1 1 2 3 3 4 3 7 3 7 9 9 7 7 7 7 7 8 8 5 5 5 5 4 3 3 4 5 5 6 6 5 4 4 5 8 7 8 6 7 7 8 7 7 9 9 9 9 10 10 10 9 8 10 9 8 8 8 8 7 7 7 7 7 8 8 8 8 8 8 9 10 10
3 5 4 2 2 3 2 1 1 1 3 2 2 1 4 4 4 4 5 4 4 4 2 1 4 3 1 2 4 2 4 4 6 5 7 7 7 7 9 8 9 8 7 8 7 5 5 4 5 4 4 4 3 5 5 4 4 3 6 7 4 6 6 6 7 5 6 5 5 4 7 8 9 9 8 8 8 9 8 7 7 7 7 6 6 6 6 7 7 7 7 7 7 7 8 9 10
2 2 4 4 1 2 2 2 4 4 4 3 3 6 2 3 4 4 8 6 8 3 1 1 3 2 4 5 5 6 5 7 8 5 6 6 6 6 7 7 8 8 9 9 8 7 6 5 5 4 4 4 4 4 3 2 3 5 7 7 6 6 6 6 6 9 9 7 6 7 8 8 8 8 8 7 8 7 7 7 6 6 7 6 6 5 5 6 6 6 6 6 6 6 7 7 8
4 4 2 1 1 2 2 2 0 3 5 4 0 1 5 0 1 4 4 2 1 1 0 3 0 2 1 5 1 3 7 9 8 7 7 7 7 5 5 6 5 6 6 8 9 8 7 7 6 4 4 5 5 4 4 3 4 7 8 8 7 6 7 8 8 8 9 8 8 8 8 7 6 6 9 6 7 6 6 5 6 5 6 6 5 4 4 4 5 5 5 5 5 5 5 5 5
1 3 1 3 3 2 2 2 4 2 3 3 2 3 5 3 0 1 1 1 3 1 1 1 2 0 3 3 1 1 7 9 9 8 7 6 7 6 4 4 4 5 4 5 7 7 8 8 7 5 4 5 5 5 4 4 3 7 7 8 8 8 8 9 9 8 7 7 7 7 7 5 4 4 5 4 6 4 6 6 6 5 5 5 4 3 3 3 3 3 3 3 5 5 4 4 3
1 2 4 2 4 3 4 5 8 1 2 2 4 6 6 3 1 1 2 4 2 0 1 4 2 3 3 4 2 5 8 11 10 12 9 8 6 8 8 6 7 7 6 6 6 5 6 6 7 7 5 5 6 5 4 3 3 4 4 4 5 6 7 7 7 5 5 4 6 5 4 4 4 3 4 5 3 3 4 6 5 5 5 4 3 3 1 1 2 1 1 3 4 5 5 2 3
3 1 2 8 5 6 7 5 6 2 2 4 5 4 7 7 8 3 3 1 1 1 3 1 3 4 2 1 4 9 9 9 10 10 12 12 9 11 10 7 9 9 10 7 6 7 5 6 6 7 6 5 5 4 4 4 4 3 4 4 4 5 5 5 4 4 4 4 4 4 3 3 3 3 4 4 3 4 2 2 5 6 6 5 2 1 1 1 2 3 5 5 4 4 2 2 2
1 5 5 6 6 4 6 5 5 7 2 2 4 3 3 1 5 2 3 3 1 6 5 2 4 6 5 1 5 7 8 9 9 10 12 11 10 9 10 11 10 11 9 9 7 6 7 6 8 6 7 6 5 4 4 4 4 3 4 4 4 4 3 4 4 4 4 4 4 4 3 3 3 3 4 6 5 3 2 4 4 3 4 5 3 3 5 5 6 4 5 5 3 2 1 1 2
1 2 5 5 5 3 4 6 5 5 3 1 5 2 4 2 4 4 4 4 5 6 6 10 11 10 7 5 7 8 9 9 8 8 9 10 10 9 10 10 9 6 5 5 5 8 8 8 6 8 6 6 6 5 5 5 4 3 4 4 4 4 4 3 4 4 4 4 4 4 4 3 3 3 3 3 2 2 2 2 1 1 1 2 3 1 1 2 2 2 2 2 2 1 2 2 2
4 6 4 4 2 2 4 7 5 3 1 3 3 7 7 2 1 4 9 8 8 10 11 11 9 7 9 10 10 8 10 11 10 10 11 12 14 12 9 7 6 5 4 7 9 8 10 8 7 6 7 6 5 6 6 5 5 4 3 4 4 3 4 4 4 4 4 4 4 4 4 4 4 3 3 3 2 3 3 1 2 1 1 2 1 1 1 2 2 1 2 2 2 1 2 2 2
4 2 2 3 4 3 1 3 5 5 3 4 6 5 4 6 2 4 8 9 6 3 1 8 8 7 8 6 10 9 10 12 12 13 13 12 12 10 10 8 9 9 8 8 7 6 8 8 9 8 9 6 6 4 5 5 5 5 5 4 5 4 4 4 4 4 4 4 4 4 5 4 4 4 4 3 4 3 3 3 3 3 3 2 2 2 2 2 1 1 2 2 2 2 3 2 2
1 5 2 6 4 5 4 2 7 3 8 6 4 2 4 4 5 1 5 9 6 3 0 2 3 5 7 10 11 14 15 15 16 15 14 16 14 13 9 9 8 4 5 6 7 7 8 11 9 9 8 9 6 5 6 6 6 6 5 5 5 6 6 5 5 5 5 5 4 5 4 5 6 5 4 4 4 3 4 4 4 3 4 4 3 3 3 2 2 1 2 3 3 3 3 4 3
5 4 4 1 2 3 2 3 4 4 4 0 4 5 5 8 4 4 7 13 9 4 2 3 6 7 7 9 12 11 11 11 10 10 7 6 7 6 5 6 5 5 7 8 7 8 9 9 9 10 9 10 8 7 7 6 6 6 6 6 6 6 5 5 6 5 5 4 4 5 4 5 4 5 5 5 4 5 5 4 4 4 4 4 4 4 3 3 3 2 3 3 3 3 3 4 3
4 7 2 1 2 1 2 2 3 3 2 4 4 5 2 3 1 3 9 11 5 2 2 4 6 7 9 10 12 12 12 14 12 9 14 9 5 6 9 8 7 9 11 9 8 8 7 8 9 10 10 9 8 8 7 6 7 7 7 7 6 5 6 6 5 5 5 5 5 5 5 5 6 6 5 5 5 6 5 4 4 4 5 4 4 5 5 4 5 3 3 4 5 4 3 4 2
5 3 4 5 2 1 0 6 2 2 1 4 5 4 2 1 2 7 4 7 3 4 4 4 7 9 9 8 9 10 12 14 15 12 4 5 7 9 10 8 9 11 9 9 8 8 7 8 9 9 9 9 8 9 8 7 6 7 7 6 6 6 5 5 5 5 5 5 5 6 6 5 5 5 6 6 5 5 5 4 5 5 4 5 5 6 4 6 4 5 5 5 3 3 4 3 2
3 6 3 3 2 1 0 0 1 2 2 5 5 4 0 0 1 7 2 1 5 6 5 5 6 7 9 9 9 9 10 11 7 6 13 11 12 12 13 12 13 11 11 11 9 7 7 10 10 9 9 9 9 9 8 8 8 7 7 6 6 6 6 6 6 5 6 5 5 6 6 6 5 6 6 6 6 5 5 5 5 5 6 5 5 5 5 5 5 4 3 3 2 1 3 4 1
2 6 3 5 3 3 2 4 3 4 3 4 4 1 4 2 8 4 4 2 2 5 6 5 8 7 8 8 8 8 12 8 7 9 13 14 12 10 13 12 12 12 9 9 9 8 10 10 10 10 9 9 10 11 9 9 7 7 7 7 7 6 6 6 6 6 6 6 6 6 7 7 6 7 6 7 6 6 6 6 6 6 6 5 5 5 5 3 3 3 4 1 2 1 3 5 2
4 2 3 1 2 4 7 1 1 5 2 6 5 6 8 12 13 4 5 5 3 2 5 6 7 7 7 7 9 9 7 6 10 14 13 12 11 11 13 11 10 10 8 6 7 10 9 7 8 8 9 10 11 10 9 8 9 8 7 6 6 7 6 7 7 6 6 6 6 7 7 7 7 7 7 7 6 6 6 7 7 6 6 5 4 4 5 4 4 3 4 1 3 1 4 5 4
7 2 2 4 3 5 1 3 4 5 1 5 2 9 8 7 8 4 6 6 8 8 8 8 8 8 7 8 9 10 10 11 15 15 13 12 10 9 11 8 9 9 7 7 10 10 9 9 8 8 9 11 10 10 11 10 9 8 8 7 7 8 7 7 7 7 7 7 7 7 8 7 8 8 7 7 7 7 7 7 7 7 5 4 4 4 5 3 3 4 2 2 2 2 3 5 4
1 4 8 0 7 3 2 1 8 9 0 1 5 7 11 11 6 6 6 6 7 10 10 10 9 8 8 8 9 9 11 10 10 9 11 12 10 10 10 11 10 10 11 10 9 9 10 9 9 10 10 12 11 12 11 10 10 9 8 8 7 8 7 8 8 8 8 7 7 7 7 8 8 8 8 7 7 7 7 7 6 5 5 4 4 4 3 4 3 3 3 3 3 5 4 6 4
2 10 1 7 4 6 2 3 6 7 4 1 8 7 4 8 9 6 2 5 8 11 12 8 8 9 8 8 7 8 7 8 9 11 13 12 11 10 10 10 11 12 11 10 10 9 10 10 11 12 12 13 12 11 11 9 8 9 9 9 9 9 9 9 8 7 7 7 7 7 7 8 8 8 8 8 7 7 7 6 5 5 4 5 4 4 4 4 3 4 4 4 5 6 5 5 5
8 4 6 3 9 4 7 2 3 4 4 5 5 6 11 1 1 2 1 6 5 5 9 8 7 7 9 7 7 8 9 9 12 13 15 13 11 12 11 10 11 10 10 11 11 12 13 11 11 12 10 11 11 11 11 10 9 9 8 8 8 9 10 8 8 7 8 8 8 8 8 8 8 8 8 8 8 7 6 6 5 5 5 5 5 4 5 4 4 5 5 4 6 5 5 6 6
11 7 6 3 0 6 6 5 4 8 5 8 8 9 15 10 6 6 3 4 7 10 11 10 9 8 8 7 8 9 10 11 15 12 11 11 11 11 10 10 9 9 9 11 11 11 9 9 9 10 11 10 10 10 10 10 9 8 7 8 8 9 8 8 8 8 9 8 8 9 9 8 8 9 9 8 8 7 6 5 5 4 5 5 5 4 4 4 4 4 5 6 4 6 6 5 6
15 14 7 4 8 7 9 7 1 11 6 6 6 11 17 15 9 11 7 4 5 7 4 6 7 6 7 8 9 9 10 14 14 10 9 8 10 11 11 10 9 9 9 9 11 10 11 9 9 9 11 11 9 9 8 9 8 8 9 6 8 9 8 8 8 9 8 9 9 9 9 9 8 9 9 8 8 7 6 6 6 5 5 5 5 5 6 5 6 5 6 6 6 4 4 4 4
6 7 6 8 7 5 2 3 1 4 2 9 11 12 17 12 8 12 13 1 4 7 9 9 8 8 8 9 10 11 11 15 10 11 12 10 10 10 10 8 9 8 9 10 10 12 12 13 11 13 11 10 10 10 9 10 10 8 8 11 12 9 9 9 9 9 9 9 9 9 9 9 9 9 8 7 8 7 6 6 6 5 5 5 6 8 8 7 7 7 6 5 6 7 5 4 4
11 9 9 9 9 11 5 5 1 1 4 3 7 8 15 14 10 12 5 2 9 13 13 11 12 12 11 11 12 12 14 7 6 8 9 6 8 9 8 9 9 11 12 11 13 15 14 14 13 13 9 11 12 12 10 10 10 11 10 10 9 8 8 9 10 8 9 8 8 8 8 8 9 8 8 7 7 7 7 6 6 6 6 6 7 6 6 6 6 6 4 4 4 7 5 4 4
7 9 8 7 9 1 1 2 0 1 2 8 2 6 14 15 13 13 8 10 13 13 12 14 12 13 12 11 12 11 8 10 9 12 9 8 9 8 9 10 11 13 12 14 14 12 12 12 13 11 11 11 11 11 10 12 11 9 9 6 9 7 6 8 8 8 7 8 8 8 8 8 8 8 7 7 7 7 7 6 7 6 7 7 6 7 6 7 7 7 7 7 5 3 5 2 5
6 6 8 11 5 7 7 1 1 2 4 1 1 4 12 11 6 11 11 11 15 13 12 14 11 14 14 14 13 12 13 12 12 13 13 11 10 10 9 10 12 10 12 11 11 13 11 12 11 12 12 11 10 12 12 11 9 7 6 5 5 7 6 4 6 5 6 6 8 8 9 8 7 7 6 6 7 7 7 8 7 7 8 7 8 8 7 9 7 6 6 7 6 7 3 5 5
6 9 9 4 7 8 5 3 1 0 2 1 3 8 12 12 10 9 10 13 13 10 8 11 13 12 11 9 7 10 13 12 13 14 11 9 9 11 13 14 11 12 13 13 13 13 11 15 15 14 13 12 11 11 12 9 6 5 4 2 1 2 2 2 4 8 8 6 7 8 9 6 7 7 6 7 8 9 8 8 8 8 8 8 8 8 9 9 8 7 8 7 8 8 8 4 3
7 5 10 7 6 5 4 4 5 0 3 3 2 5 11 6 13 16 14 4 8 8 9 15 17 13 10 12 15 11 10 11 13 15 15 13 13 11 9 9 10 12 13 14 13 14 14 13 13 13 11 10 11 12 12 10 10 10 8 8 9 8 9 8 12 12 8 9 11 7 6 8 8 8 8 8 9 8 9 9 9 9 9 8 8 9 8 6 7 8 9 9 8 8 9 6 5
10 9 6 9 8 7 7 4 5 3 7 2 1 11 9 3 7 8 7 5 13 4 8 16 12 11 9 12 12 13 14 14 12 12 11 8 10 9 11 11 13 14 15 12 12 13 13 12 12 14 13 12 12 11 12 11 10 10 13 14 13 12 12 11 9 5 8 8 6 8 8 7 9 10 9 9 8 9 9 9 9 9 9 8 8 8 9 9 9 9 7 8 9 7 7 9 10
11 6 11 8 8 10 7 7 8 4 1 2 0 3 7 13 12 7 5 6 11 8 13 14 11 9 10 10 12 14 15 14 13 13 14 13 9 10 14 15 13 16 13 9 11 11 14 15 14 14 12 12 11 11 12 13 13 12 12 13 11 11 13 14 8 8 6 5 7 9 7 7 8 9 9 9 9 9 9 9 9 9 9 9 8 9 10 8 7 6 7 9 8 8 9 10 9
2 8 14 8 11 5 7 6 4 1 1 8 4 0 3 9 5 1 5 6 10 13 15 16 11 11 11 13 14 15 14 12 11 12 14 14 14 14 14 13 13 11 9 11 13 14 14 14 14 13 13 12 11 13 13 14 14 14 13 12 11 12 12 10 5 6 7 7 8 7 8 8 8 8 9 9 9 9 9 9 8 9 9 9 8 9 8 8 9 8 7 8 8 9 9 10 9
1 5 12 9 10 6 6 5 6 1 1 12 8 7 8 14 11 6 1 4 13 17 19 15 9 11 13 14 13 13 11 10 11 14 14 13 12 12 11 8 5 10 11 12 11 10 11 11 12 13 14 12 12 13 14 15 15 12 12 13 15 14 10 7 6 8 7 7 9 8 7 7 7 7 7 8 9 9 8 8 9 10 10 10 8 9 8 8 8 8 9 10 10 10 9 10 11
11 7 11 6 7 4 3 5 2 2 7 16 9 11 10 13 11 13 10 12 15 18 8 4 5 7 10 10 10 11 11 12 12 12 12 12 8 6 6 10 12 9 8 8 10 10 10 11 12 14 15 12 12 14 14 15 14 14 14 15 16 16 13 10 8 10 8 7 9 8 8 7 6 7 7 7 8 8 9 9 10 10 9 8 8 8 9 9 9 9 10 11 11 12 9 10 10
7 6 6 8 2 4 4 2 2 5 11 7 14 13 13 13 9 8 10 8 13 13 13 14 9 10 11 9 11 11 11 11 9 7 10 9 7 7 5 9 10 10 7 10 11 10 10 11 11 14 13 13 11 12 13 14 13 15 14 15 16 16 13 11 13 14 11 11 9 8 6 5 6 6 6 7 8 8 8 9 9 8 8 9 10 9 9 9 9 9 9 9 9 11 10 9 9
5 8 2 14 5 4 4 2 4 9 14 2 2 13 2 21 11 5 1 9 6 7 13 13 9 10 12 11 11 10 8 6 7 8 8 7 9 9 9 11 9 9 11 12 13 12 12 12 13 14 15 13 13 12 14 15 14 15 15 15 15 14 13 13 13 13 9 10 8 7 7 8 6 7 8 8 8 10 9 9 9 9 9 10 10 10 9 10 9 9 10 10 10 11 10 11 10
9 11 9 5 4 6 7 7 1 4 2 1 3 5 11 13 6 12 18 13 11 10 10 8 9 12 12 8 6 6 6 6 7 7 7 8 8 8 9 10 11 10 11 12 12 11 11 11 13 14 16 14 13 13 15 14 16 15 14 14 14 12 12 12 12 12 10 8 7 9 9 9 8 10 9 10 9 10 9 10 10 10 10 10 10 10 10 9 10 10 10 11 11 11 10 12 12
15 9 12 8 6 5 12 7 12 8 3 1 3 8 9 4 6 4 6 9 8 8 11 7 6 7 6 1 3 5 6 6 6 7 9 10 10 9 8 8 9 9 10 11 9 11 10 11 12 14 14 13 13 14 13 15 14 13 13 13 13 10 11 11 11 10 8 8 8 9 9 8 9 8 9 8 8 9 10 10 11 11 10 10 10 10 9 10 10 9 9 10 9 8 8 9 9
4 4 5 5 12 4 3 1 1 1 2 1 2 8 2 7 3 8 6 5 7 5 7 4 9 8 6 7 9 10 9 9 8 9 10 11 10 7 6 7 9 9 9 8 9 10 11 12 12 15 16 14 14 14 14 15 14 12 13 13 13 12 10 9 8 7 8 9 8 9 9 9 9 8 7 7 8 10 10 10 10 11 10 9 9 9 9 9 9 9 7 6 7 5 6 8 9
7 7 13 8 2 8 5 2 1 2 3 10 3 7 10 8 14 16 14 4 8 6 6 6 9 8 5 10 13 9 8 9 8 9 10 10 7 7 8 8 7 7 7 10 11 11 13 13 12 13 12 10 11 12 13 12 12 12 13 13 11 11 11 12 12 11 10 7 8 8 8 9 7 8 7 8 9 9 9 10 10 9 9 9 9 9 9 9 9 9 9 9 9 9 10 10 8
9 11 8 4 4 4 4 8 3 1 5 7 4 12 9 3 15 2 18 12 9 7 9 8 7 6 7 12 11 8 9 10 7 7 8 8 7 7 7 7 8 10 11 10 12 11 11 12 12 13 11 12 11 11 12 11 12 12 11 12 12 12 12 12 10 9 7 7 7 7 7 7 9 8 8 8 8 9 9 10 9 8 8 9 9 9 9 9 8 8 10 11 9 7 8 9 10
12 13 10 13 5 8 1 1 8 2 7 9 3 5 7 11 15 2 1 10 9 11 8 6 8 9 12 11 8 9 11 9 9 10 9 9 8 9 9 9 8 8 8 9 8 7 6 6 7 9 12 12 12 10 9 9 9 10 10 12 12 12 10 9 8 8 7 9 10 9 9 10 6 7 7 8 9 9 8 8 8 8 8 9 9 9 8 8 8 7 6 6 7 8 8 7 6
1 6 8 0 3 7 9 8 1 3 10 2 14 6 16 11 8 8 6 8 11 11 9 10 12 10 8 8 10 10 9 10 10 9 9 9 9 9 9 9 9 9 8 6 5 4 7 7 6 6 5 4 5 7 7 9 9 9 10 8 9 9 9 9 9 9 9 10 10 9 9 7 9 7 8 9 9 9 8 8 7 8 9 8 8 8 8 8 9 10 8 6 5 7 8 8 8
6 9 8 3 4 1 1 2 10 7 9 12 12 10 11 9 7 10 12 10 10 12 13 12 12 9 7 7 8 9 10 9 9 8 8 8 9 8 7 5 4 3 3 4 5 7 6 4 5 5 8 7 7 8 7 9 8 10 10 11 10 8 10 9 9 9 10 10 9 8 9 8 5 9 8 8 9 8 8 8 8 8 9 8 8 7 7 7 8 8 9 9 7 6 7 8 6
18 18 19 21 19 11 14 13 1 4 5 5 5 19 11 2 7 11 13 15 15 13 13 12 7 6 7 8 9 10 9 9 8 7 6 7 7 6 4 2 2 4 4 5 5 4 5 6 7 6 5 6 7 7 9 10 9 9 10 10 9 8 9 8 9 9 10 10 9 9 7 5 9 9 8 9 8 7 7 7 8 8 8 8 8 8 8 8 8 7 7 6 6 6 6 6 5
Wind_Direction
326 346 315 70 59 101 56 1 150 320 61 158 21 91 193 125 201 74 213 3 110 250 230 45 150 141 173 209 189 195 210 131 206 128 216 231 298 127 102 134 132 130 138 146 150 154 173 155 136 132 132 132 130 127 125 126 132 130 132 139 130 121 113 110 115 120 116 121 120 117 117 115 114 110 106 102 97 96 93 90 86 84 82 81 83 84 85 84 82 81 81 83 87 89 88 84 81
326 318 20 354 17 46 316 119 99 352 38 53 247 103 247 278 89 216 196 190 204 167 91 113 83 102 75 56 111 144 66 358 171 154 261 245 89 71 148 152 141 139 143 146 153 157 164 146 133 133 132 132 129 128 127 122 120 125 133 133 135 117 121 119 122 121 122 121 127 126 117 109 114 118 117 106 104 100 95 92 91 88 85 84 84 87 88 87 85 85 85 87 90 90 91 89 86
346 353 359 25 32 72 91 35 301 53 93 252 275 206 331 150 201 223 209 202 183 143 148 91 92 45 0 355 3 73 237 115 79 41 98 135 124 213 176 161 141 141 146 150 149 148 143 141 138 138 134 133 132 133 130 128 126 130 130 136 129 128 130 131 130 128 129 128 122 118 121 121 122 118 113 112 108 102 97 92 87 86 85 83 84 85 87 86 86 86 87 87 89 91 88 89 89
59 4 113 55 289 33 56 27 91 124 143 211 312 271 176 194 225 204 236 234 170 123 13 28 70 270 109 355 218 77 307 305 193 153 144 175 182 132 155 157 137 142 149 143 136 139 145 145 147 142 142 140 137 135 135 133 141 137 135 131 133 134 135 136 122 123 131 129 126 125 118 119 118 114 105 103 98 94 93 93 88 83 81 82 82 83 85 86 87 87 88 88 89 90 92 92 90
64 318 80 106 102 9 102 113 141 99 254 202 195 267 241 205 224 216 262 244 192 123 54 209 80 338 208 128 196 110 274 171 41 143 129 109 143 136 151 146 138 146 152 135 131 138 147 151 155 148 148 149 141 138 144 142 141 142 141 139 135 133 145 130 134 132 124 131 133 122 111 116 114 111 109 98 93 95 94 93 92 87 83 82 83 85 87 90 90 91 92 92 93 94 94 93 92
42 30 2 68 57 164 59 57 10 191 216 151 191 246 220 212 175 209 203 279 250 244 213 329 168 196 64 305 178 92 194 32 175 200 154 192 145 142 146 135 144 152 142 127 134 140 148 155 154 153 152 153 146 145 146 141 139 144 143 139 142 151 152 139 129 126 133 135 140 135 123 117 112 109 102 98 99 99 98 99 97 93 89 88 89 91 93 96 98 98 97 96 98 98 96 93 95
291 42 360 28 44 49 166 135 243 200 277 161 225 249 218 200 194 134 198 127 280 354 141 222 83 112 64 288 14 233 207 176 114 204 163 156 139 145 139 153 147 146 137 135 140 141 148 151 156 152 147 149 148 147 151 145 150 147 152 142 147 150 161 137 130 135 132 125 135 136 129 120 114 110 104 105 104 104 103 103 100 96 93 90 93 95 101 104 105 104 103 102 100 99 98 97 97
58 100 327 89 297 41 54 157 246 164 257 169 224 256 242 183 145 136 186 115 241 165 168 260 141 103 222 65 172 272 352 198 253 122 123 139 145 145 145 161 145 142 146 136 141 144 155 150 152 141 143 147 149 153 152 146 150 154 153 151 147 144 168 144 141 142 133 130 136 134 125 120 120 117 114 113 112 108 109 107 106 101 96 94 93 98 103 108 109 107 105 102 99 99 98 98 100
353 87 248 66 55 37 55 303 261 240 285 271 281 218 213 156 143 130 177 248 321 217 217 181 250 104 236 83 197 271 312 345 106 128 136 143 151 151 145 157 141 134 132 114 113 141 136 155 146 140 145 148 151 155 141 141 157 168 152 152 145 153 166 149 146 144 138 128 137 137 129 123 121 120 118 117 114 111 110 108 108 103 101 101 100 98 102 107 109 109 106 104 102 100 99 98 97
34 48 306 121 135 301 11 296 32 201 233 248 240 215 156 153 136 124 174 123 217 119 218 332 138 36 83 178 306 356 338 22 123 111 143 151 150 153 149 152 148 133 120 107 76 61 107 118 116 126 140 148 160 154 149 151 167 161 154 163 153 151 165 157 155 131 136 125 134 139 130 127 129 124 120 119 117 117 114 115 109 104 102 100 100 99 99 103 107 105 103 101 97 93 91 93 95
292 15 137 80 28 77 204 265 260 310 275 308 292 227 182 123 124 158 151 214 38 148 300 278 345 166 90 283 219 257 306 133 141 150 153 154 149 153 150 148 145 137 126 111 96 80 46 68 91 110 121 147 125 141 140 150 165 183 159 160 160 158 169 174 157 138 127 135 127 132 133 132 129 126 122 122 121 122 123 118 116 109 108 106 100 95 94 94 101 105 102 98 94 91 91 92 91
338 21 7 99 179 158 232 174 280 277 294 333 203 327 190 125 100 145 209 144 235 293 180 149 245 139 53 329 290 309 353 165 209 148 149 148 153 153 148 142 142 130 129 126 117 110 96 78 82 121 133 138 115 122 136 150 170 191 142 152 152 161 159 162 146 144 143 145 139 139 137 137 134 129 124 121 120 122 123 122 118 115 111 106 99 101 97 95 97 99 95 92 90 90 92 92 89
113 102 84 104 219 153 184 121 266 306 345 275 177 154 136 110 182 196 171 158 95 126 282 210 114 75 226 190 254 310 170 206 160 160 149 154 152 146 141 141 144 140 139 136 131 134 130 126 118 123 150 146 135 125 133 152 174 172 151 152 164 163 165 155 165 161 158 159 147 145 141 139 133 131 126 121 121 123 119 114 114 116 112 111 110 107 103 95 92 91 88 86 87 86 88 88 84
120 179 129 229 63 123 143 218 343 159 262 245 272 152 185 142 241 168 132 159 209 171 231 182 147 136 130 339 304 285 227 181 147 160 149 148 146 148 152 154 152 153 154 151 155 156 152 151 146 149 160 155 150 145 147 165 183 154 149 152 161 162 167 160 174 179 148 135 107 108 133 127 130 124 117 116 116 115 111 115 114 118 124 121 117 102 97 92 88 86 86 86 82 81 79 80 83
168 160 82 115 112 88 233 127 213 160 244 200 192 140 180 259 118 138 170 174 234 209 335 126 169 116 242 156 277 222 197 161 146 148 144 135 136 150 155 159 162 161 161 165 161 158 169 150 146 150 161 163 160 156 159 177 182 173 154 162 170 174 171 156 126 116 118 116 114 102 106 112 116 113 108 109 106 112 118 115 121 128 133 133 114 104 96 90 83 79 79 78 72 73 71 67 78
143 98 82 138 235 162 250 173 25 103 254 183 355 168 149 226 168 127 244 157 225 336 134 196 111 210 207 172 206 261 155 137 139 136 138 140 134 139 152 162 157 167 173 170 167 173 165 152 153 161 165 166 165 166 171 174 192 176 165 163 171 150 140 126 125 123 122 121 115 111 106 103 100 104 110 110 118 120 116 117 120 130 136 138 124 112 98 88 86 77 77 75 70 63 54 53 54
81 75 108 63 245 165 243 160 142 210 243 251 278 152 163 214 232 246 109 119 127 192 323 253 211 24 189 208 265 247 128 122 126 132 139 149 150 152 163 160 145 166 182 191 182 174 160 154 161 156 174 172 170 168 172 172 186 171 168 163 153 154 147 139 128 122 114 117 116 115 110 104 105 107 104 110 111 116 125 124 124 129 144 140 136 127 108 85 79 85 67 73 67 44 34 34 30
72 161 123 184 193 159 208 177 192 218 113 233 200 205 151 217 193 201 122 38 79 348 246 302 296 250 226 260 321 127 133 132 143 146 166 161 172 165 176 182 172 185 180 190 200 183 164 164 163 165 168 179 172 167 171 176 172 162 157 153 155 159 149 137 130 132 126 120 120 117 116 120 119 118 120 116 109 102 124 130 130 129 115 99 122 150 125 81 48 72 59 53 61 39 17 17 356
116 99 126 220 172 231 160 198 198 125 247 202 201 180 180 209 144 213 149 254 126 145 272 355 305 292 324 1 125 129 141 140 154 161 167 176 185 184 180 171 187 185 194 191 193 192 187 166 159 165 175 176 173 170 170 172 167 152 153 154 158 160 153 142 139 132 134 134 133 125 124 127 135 136 135 131 118 94 93 115 135 129 124 114 106 144 7 343 346 10 21 34 32 22 14 2 350
226 127 204 234 202 218 189 171 193 216 132 145 161 217 171 214 156 118 200 188 103 198 204 293 263 247 240 286 143 147 154 154 164 169 174 183 190 191 187 190 196 195 187 193 189 184 193 189 180 167 173 174 170 174 167 168 171 160 152 153 154 154 150 150 145 141 146 148 144 137 133 136 135 134 115 119 119 110 81 56 43 93 120 129 116 57 22 358 356 354 344 356 18 15 1 348 344
226 112 194 223 204 180 243 181 226 213 180 173 174 101 176 234 183 155 175 117 247 256 229 188 206 218 200 187 167 161 162 165 175 180 182 186 191 196 201 201 198 191 186 178 192 196 196 196 183 185 172 173 173 171 173 178 172 162 156 157 157 156 154 149 153 151 156 158 151 145 144 138 130 116 115 112 129 128 131 125 80 69 66 75 73 93 8 321 343 327 333 350 355 342 341 344 357
118 212 192 169 117 177 244 193 177 156 178 120 142 143 210 102 84 165 154 183 220 210 224 210 213 190 160 175 185 172 173 175 184 186 194 192 192 196 195 195 185 188 173 196 199 189 199 193 191 181 181 178 181 174 176 171 163 175 171 165 159 167 164 166 165 164 161 163 161 149 137 133 132 131 142 152 154 155 158 162 163 154 158 141 107 143 230 298 308 323 329 320 315 315 288 275 280
197 278 249 209 186 164 227 164 178 133 123 146 161 214 94 161 181 192 181 195 230 212 179 198 205 184 183 161 154 176 181 187 190 196 195 198 203 201 196 189 185 192 195 207 195 200 195 194 190 183 191 180 184 176 172 175 183 181 175 172 167 181 175 169 178 177 179 170 165 156 149 156 155 158 160 166 176 176 183 185 188 182 192 200 200 209 226 248 295 301 296 286 285 296 290 280 282
198 225 186 229 167 189 166 171 138 150 144 199 199 102 151 155 184 178 193 236 216 175 226 230 175 140 147 156 181 180 188 190 199 201 197 201 198 201 193 190 197 183 187 201 199 200 201 202 188 187 188 187 183 178 179 186 188 180 184 177 186 182 174 184 185 187 181 179 174 175 174 170 170 174 183 178 190 181 197 197 188 185 203 214 204 213 221 232 255 265 273 276 288 289 301 300 304
207 251 195 282 148 236 179 131 155 160 199 173 134 149 224 184 191 109 234 239 235 243 83 120 131 144 164 172 182 193 196 203 208 209 212 220 209 198 199 198 186 180 205 200 194 194 204 198 189 194 193 190 188 177 190 189 186 190 184 186 194 181 188 187 187 185 187 185 180 179 174 174 180 182 186 194 173 197 200 198 193 201 203 211 200 209 218 221 243 245 248 258 269 282 296 294 321
199 222 127 176 224 262 214 134 168 179 148 146 127 222 291 237 4 218 230 238 236 111 80 119 135 154 179 189 187 189 197 202 205 201 210 203 192 191 211 200 190 198 210 200 190 202 190 192 196 196 193 193 188 184 194 190 192 190 194 194 191 183 193 191 184 189 195 181 188 186 191 186 185 186 195 193 186 203 201 198 199 212 213 208 202 215 208 213 231 226 241 249 259 273 291 284 341
194 160 181 190 236 124 328 201 211 191 201 186 173 235 239 4 104 260 246 238 104 136 139 152 154 181 193 195 196 200 197 204 202 203 198 203 205 206 214 204 200 213 203 205 201 199 185 184 200 196 193 191 192 193 195 197 189 199 198 194 190 193 192 189 192 195 193 193 193 188 191 195 191 192 193 193 199 204 204 201 215 207 218 208 207 220 203 218 219 228 231 243 250 268 271 290 324
116 167 183 274 288 7 53 358 244 136 254 176 174 228 137 290 82 230 251 258 168 159 174 174 187 194 198 202 201 204 209 214 200 173 204 199 209 207 209 204 208 210 203 209 201 187 182 193 196 194 191 190 195 200 195 200 198 201 196 192 195 195 190 196 197 196 200 198 194 192 193 195 196 201 195 195 199 201 206 210 215 207 224 212 207 211 205 208 213 230 241 247 263 278 296 308 312
147 135 184 252 292 289 245 216 217 168 241 144 152 344 283 183 227 196 230 108 183 177 189 196 202 208 208 208 208 206 214 201 193 205 213 212 212 208 214 210 206 209 213 205 196 183 193 193 193 195 189 188 196 199 198 202 202 199 196 197 196 192 195 198 202 201 202 202 198 195 197 197 199 199 199 198 198 203 206 209 215 215 222 214 209 215 209 201 211 246 267 251 293 316 319 295 326
104 55 139 309 253 271 245 95 352 158 249 160 142 251 220 234 234 176 195 143 131 189 223 218 220 216 215 208 212 220 217 196 207 214 215 215 213 209 216 211 209 210 208 202 185 200 195 193 193 191 191 192 196 200 197 198 203 202 200 200 195 191 197 199 207 203 203 205 201 201 200 201 200 204 197 201 199 206 211 213 214 219 220 213 207 202 212 200 210 215 250 269 273 292 283 283 308
192 207 79 209 144 254 275 178 157 165 209 197 141 232 245 249 249 224 219 176 173 215 225 222 223 221 218 212 214 220 221 211 213 213 217 219 216 213 217 211 207 207 200 197 201 202 192 194 189 199 191 197 195 199 198 202 199 200 200 201 199 197 197 203 206 205 206 207 202 207 205 203 205 204 203 201 206 207 213 219 218 223 215 199 199 207 212 205 195 221 230 248 288 283 260 266 262
172 131 226 184 195 282 288 198 160 186 269 237 119 250 246 252 254 235 214 186 191 222 228 226 222 223 221 220 221 225 227 223 234 234 227 226 217 219 213 214 204 204 206 205 203 195 199 197 193 198 192 198 198 200 201 201 198 199 200 202 201 198 201 205 207 207 208 206 206 210 206 208 207 207 205 204 212 211 215 220 222 217 213 188 205 208 201 214 203 228 231 190 247 260 250 265 228
261 203 147 201 165 222 321 229 210 205 121 298 184 232 282 291 244 251 281 190 201 214 230 230 231 232 231 231 230 233 244 243 237 232 232 222 222 218 218 215 207 208 206 204 201 197 202 198 195 200 198 197 199 200 202 202 195 199 200 199 202 199 204 209 210 207 208 209 210 210 207 209 212 210 206 206 214 216 218 222 221 212 201 201 200 203 204 214 198 212 231 200 199 239 237 254 265
213 202 197 201 187 171 232 308 232 239 168 200 253 230 239 197 212 199 339 171 173 233 251 252 238 232 229 231 236 237 234 241 238 229 230 220 222 218 219 216 212 207 209 208 204 201 204 198 199 201 201 198 197 198 200 200 201 200 201 202 201 204 208 210 209 202 209 212 208 211 208 209 213 211 209 207 211 217 216 216 219 208 199 200 204 192 217 203 208 204 234 216 203 212 239 241 256
186 176 186 218 53 198 194 173 248 155 247 196 209 231 251 235 238 252 236 181 178 215 224 232 235 234 235 228 229 233 235 237 243 236 232 223 225 223 221 220 213 210 210 208 208 209 207 205 201 203 201 195 197 197 199 202 202 205 204 202 206 211 213 213 207 208 212 211 211 210 209 210 210 212 210 206 209 211 213 211 215 211 198 200 198 204 212 206 210 208 221 242 217 218 226 233 240
201 189 181 134 178 210 208 220 309 173 181 229 195 215 242 240 244 262 252 173 188 234 253 261 252 243 241 231 230 228 230 237 241 242 235 223 217 219 220 215 216 212 211 207 209 207 209 207 205 205 204 198 194 195 190 199 199 201 205 207 216 215 214 213 212 214 209 214 212 209 210 210 209 210 211 209 208 207 208 209 212 206 199 192 202 208 217 212 212 213 227 228 242 248 234 243 244
123 136 165 190 195 252 286 267 250 199 137 217 216 226 243 249 229 243 250 192 231 254 240 237 241 239 236 236 230 230 231 236 234 230 233 223 216 215 218 213 216 213 212 206 207 210 208 207 198 209 202 195 192 193 195 193 197 202 213 212 215 208 212 213 217 217 215 217 213 211 210 212 210 211 211 205 207 203 208 204 206 211 196 196 204 218 216 217 211 209 220 208 226 247 253 213 235
152 164 174 197 179 226 205 203 258 279 178 264 234 246 255 255 252 250 243 170 249 244 247 236 236 235 234 230 233 230 233 249 258 256 241 229 220 213 206 210 205 209 215 205 208 208 208 206 205 209 195 198 201 199 196 196 200 201 199 209 207 208 208 210 222 218 219 220 217 214 214 212 212 211 205 205 202 199 204 207 205 208 198 205 214 219 223 217 212 214 206 239 206 224 248 192 204
160 172 178 177 219 170 319 210 21 214 148 263 231 223 253 254 245 253 235 226 240 237 232 237 229 235 237 233 235 239 243 245 238 242 242 224 222 213 203 209 211 213 214 210 213 209 211 208 211 205 202 200 205 200 193 204 204 205 200 198 196 213 217 214 220 219 210 216 216 214 214 214 212 213 204 199 202 203 208 204 210 205 205 203 211 222 218 222 213 215 205 219 235 223 235 211 186
173 150 155 209 140 154 244 270 83 221 168 246 289 267 270 272 262 252 236 219 239 235 227 239 228 233 231 229 223 227 232 235 241 240 236 226 214 211 207 209 211 207 214 215 210 211 210 213 210 207 208 203 201 202 205 208 203 198 204 195 201 202 203 211 222 225 217 213 221 213 217 213 208 210 199 195 202 206 203 210 206 204 211 202 211 220 216 225 213 217 210 218 212 249 211 242 192
206 192 201 156 161 204 178 218 90 281 311 90 314 288 279 255 262 258 243 228 244 250 234 248 248 235 237 244 244 225 228 224 234 244 240 229 216 215 209 210 202 206 211 211 206 206 208 209 207 205 206 203 202 200 203 197 176 175 183 154 113 231 277 212 209 232 218 215 223 217 220 203 209 210 199 199 197 205 205 207 208 212 210 208 207 219 222 222 215 211 206 210 204 222 247 231 230
209 234 207 179 141 144 134 112 129 83 295 211 140 307 255 255 229 237 244 165 232 229 220 238 239 235 223 233 236 236 234 228 223 232 232 221 218 221 217 212 206 212 214 213 205 208 207 209 205 205 205 203 203 201 196 186 190 185 173 189 207 212 221 210 219 220 202 211 219 208 204 199 203 206 203 202 202 201 208 208 210 211 214 211 208 218 225 221 212 206 206 207 214 210 229 241 241
202 212 168 155 158 145 140 145 111 229 234 279 155 224 272 316 253 244 241 209 241 238 212 239 237 234 223 227 230 231 229 233 234 242 244 232 224 217 220 212 210 213 219 206 205 209 208 209 204 203 204 204 201 197 186 186 192 194 197 203 208 207 217 228 223 207 206 213 203 205 206 193 199 204 208 205 205 205 207 209 210 213 214 215 210 215 223 220 219 215 201 202 212 204 199 234 237
216 131 135 137 138 151 164 152 190 223 303 323 186 203 261 282 259 213 216 211 248 248 249 247 238 233 229 228 229 231 230 228 228 229 236 236 228 210 218 215 211 216 214 197 206 205 206 207 203 203 203 203 199 191 186 188 194 198 202 208 211 215 216 229 199 211 204 192 197 207 197 200 197 202 205 205 208 206 206 211 210 213 215 217 210 217 222 220 218 214 201 207 207 202 203 223 236
216 154 130 135 136 137 144 149 177 232 60 260 173 32 292 238 270 34 133 224 254 251 242 242 233 232 233 231 230 232 233 233 225 230 232 229 223 220 220 218 216 216 205 201 206 207 206 206 205 203 204 201 198 189 189 192 198 197 200 202 212 222 222 228 190 196 203 193 208 199 200 200 198 200 202 203 205 208 205 210 210 216 217 219 213 222 222 215 212 208 204 205 208 212 209 217 226
299 104 86 97 92 80 103 128 131 311 121 243 195 176 237 268 253 214 331 217 237 244 239 239 225 218 223 231 235 235 235 233 228 230 234 234 230 230 225 231 217 213 211 211 211 207 208 205 205 203 207 200 197 192 191 195 197 195 199 204 211 220 216 217 187 206 205 192 212 204 199 197 199 199 202 204 206 207 208 206 212 217 219 220 215 220 219 216 213 212 211 210 212 217 214 214 222
131 95 106 75 52 78 60 70 111 73 248 244 180 194 194 278 236 233 173 209 213 237 255 266 233 230 235 232 229 229 229 229 230 230 237 241 240 236 216 216 223 218 210 203 208 208 206 203 203 204 209 202 196 195 191 195 195 196 203 205 210 218 212 205 205 219 208 197 212 204 199 201 191 201 192 206 206 203 208 206 212 217 218 218 217 216 219 217 216 217 219 218 218 218 219 220 224
133 137 134 95 21 50 50 6 67 206 253 230 168 184 180 236 259 213 212 209 216 221 240 237 224 224 229 226 227 227 225 228 230 227 241 242 252 247 224 231 226 222 203 205 209 205 203 203 200 207 209 204 197 195 194 198 195 202 206 207 211 217 210 205 210 220 208 211 209 205 192 186 200 193 194 198 206 203 206 213 213 217 218 218 220 219 221 218 220 219 222 221 224 221 224 221 223
123 84 144 166 179 132 210 107 219 205 234 345 325 138 211 234 229 321 307 257 254 221 227 231 218 225 229 227 224 225 224 228 225 227 233 235 230 227 223 230 228 220 210 208 207 202 202 202 199 202 208 200 198 193 197 197 198 203 205 208 214 215 212 211 216 222 209 210 203 199 183 200 184 196 198 201 204 200 206 210 208 214 218 217 221 218 221 219 220 222 224 222 222 219 216 218 223
152 157 152 165 158 164 200 189 251 293 353 287 110 178 236 259 307 230 243 241 226 231 237 236 212 222 229 221 222 239 239 224 228 229 236 240 233 230 223 225 225 222 216 211 207 201 201 202 201 203 210 196 197 196 198 198 204 205 204 209 213 211 213 212 218 220 211 205 191 201 198 197 195 203 196 206 199 200 205 209 211 216 217 219 217 222 223 222 221 224 224 225 225 225 222 222 226
188 167 173 187 183 176 206 181 206 216 219 359 240 125 233 125 247 328 259 263 259 236 232 231 244 250 258 254 233 248 257 247 229 235 232 234 238 230 226 224 229 225 219 214 205 203 199 203 201 207 209 201 197 199 197 203 206 205 206 210 213 210 213 211 219 217 205 197 196 198 201 196 201 202 201 204 192 199 206 210 213 217 217 217 216 219 222 225 225 226 228 227 225 218 217 219 222
188 160 62 202 221 100 192 198 276 266 177 230 218 209 206 202 271 301 243 278 276 272 266 263 261 255 262 270 248 235 232 240 231 233 239 240 239 240 233 229 228 225 220 213 207 202 201 205 203 206 206 199 197 197 200 203 205 203 207 208 211 210 211 213 219 210 209 200 197 196 201 197 203 199 202 189 197 199 207 211 213 218 217 217 217 216 216 218 221 223 227 226 233 214 227 224 225
170 142 208 198 54 104 81 36 13 72 47 250 142 299 272 318 284 253 273 216 266 269 266 256 248 251 258 254 254 251 241 239 234 232 239 244 244 238 230 229 226 221 215 209 208 201 202 202 202 207 209 203 201 201 204 202 205 204 208 209 209 208 209 210 212 211 206 194 193 198 199 202 198 200 198 192 200 203 208 210 214 217 216 219 221 220 220 222 219 222 225 228 231 227 228 233 230
133 200 193 73 95 87 157 218 16 64 221 264 127 231 264 58 274 184 208 229 241 253 247 242 247 243 239 245 252 251 250 245 240 241 243 244 242 240 235 230 221 214 211 212 212 206 206 204 202 202 200 201 203 199 202 201 202 206 208 210 212 210 211 214 213 210 194 188 200 199 196 199 205 198 195 198 198 205 210 211 214 214 215 218 222 223 222 223 225 230 228 228 230 226 225 226 226
178 188 154 158 208 227 302 131 217 196 244 260 244 239 263 205 239 47 265 235 234 242 243 235 248 239 234 245 257 253 253 263 255 243 237 240 234 233 228 227 226 224 221 218 218 208 211 214 209 203 204 204 202 200 201 204 203 205 208 209 209 212 212 212 210 203 183 196 203 199 201 208 196 193 194 195 203 209 208 210 210 216 217 220 220 222 220 224 228 238 231 228 223 221 225 225 220
2 78 166 50 126 215 173 193 72 126 246 319 257 127 253 194 224 162 238 222 227 241 254 250 234 233 237 244 244 245 248 245 250 248 237 228 230 226 221 220 219 219 220 226 220 208 215 212 202 210 212 199 193 195 191 201 202 203 211 210 215 212 208 208 204 194 197 205 207 200 206 203 205 187 200 199 206 207 203 206 208 215 220 219 219 221 221 223 225 230 232 230 219 210 221 226 229
159 168 176 194 213 307 99 211 191 166 216 227 265 267 252 238 176 175 206 215 214 211 224 238 250 248 236 239 238 248 247 244 244 245 245 232 231 234 231 228 230 235 227 212 204 210 213 196 211 202 198 199 199 198 189 204 193 207 207 208 208 199 205 204 202 199 204 210 209 205 207 206 173 205 196 203 206 205 202 205 207 212 217 219 219 221 217 223 227 227 226 229 230 217 227 238 236
182 181 189 188 178 173 184 225 150 205 201 228 203 251 253 270 193 187 202 212 217 205 204 231 234 249 246 233 235 234 247 248 240 241 244 245 244 244 252 239 210 208 220 205 213 200 200 202 206 197 199 204 197 199 199 201 199 204 205 208 205 202 204 198 200 201 208 211 210 208 200 176 203 208 192 206 205 202 201 203 208 212 215 219 220 220 215 217 226 233 239 224 219 223 235 240 231